TimeMDT,TemperatureF,Dew PointF,Humidity,Sea Level PressureIn,VisibilityMPH,Wind Direction,Wind SpeedMPH,Gust SpeedMPH,PrecipitationIn,Events,Conditions,WindDirDegrees,DateUTC
12:53 AM,51.1,7.0,17,29.95,10.0,WSW,3.5,-,N/A,,Clear,250,2012-11-03 06:53:00
1:53 AM,41.0,8.1,26,29.98,10.0,North,5.8,-,N/A,,Clear,10,2012-11-03 07:53:00
2:53 AM,37.0,8.1,30,30.01,10.0,North,3.5,-,N/A,,Clear,360,2012-11-03 08:53:00
3:53 AM,35.1,8.1,33,30.03,10.0,NNE,3.5,-,N/A,,Overcast,20,2012-11-03 09:53:00
4:53 AM,36.0,10.0,34,30.03,10.0,East,4.6,-,N/A,,Clear,80,2012-11-03 10:53:00
5:53 AM,35.1,9.0,34,30.08,10.0,Calm,Calm,-,N/A,,Clear,0,2012-11-03 11:53:00
6:53 AM,32.0,9.0,38,30.11,10.0,North,5.8,-,N/A,,Clear,360,2012-11-03 12:53:00
7:53 AM,34.0,12.9,42,30.16,10.0,NE,6.9,-,N/A,,Clear,40,2012-11-03 13:53:00
8:53 AM,43.0,19.0,38,30.14,10.0,ENE,3.5,-,N/A,,Clear,70,2012-11-03 14:53:00
9:53 AM,48.0,23.0,37,30.14,10.0,Calm,Calm,-,N/A,,Overcast,0,2012-11-03 15:53:00
10:53 AM,52.0,24.1,34,30.13,10.0,Calm,Calm,-,N/A,,Clear,0,2012-11-03 16:53:00
11:53 AM,57.0,24.1,28,30.10,10.0,South,4.6,-,N/A,,Clear,180,2012-11-03 17:53:00
12:53 PM,59.0,24.1,26,30.05,10.0,Variable,4.6,-,N/A,,Clear,0,2012-11-03 18:53:00
1:53 PM,61.0,23.0,23,30.06,10.0,SSW,6.9,-,N/A,,Clear,200,2012-11-03 19:53:00
2:53 PM,61.0,21.9,22,30.05,10.0,SSE,5.8,-,N/A,,Clear,160,2012-11-03 20:53:00
3:53 PM,63.0,19.9,19,30.04,10.0,Variable,3.5,-,N/A,,Clear,0,2012-11-03 21:53:00
4:53 PM,62.1,19.9,20,30.04,10.0,South,5.8,-,N/A,,Clear,190,2012-11-03 22:53:00
5:53 PM,59.0,18.0,20,30.06,10.0,SW,3.5,-,N/A,,Mostly Cloudy,230,2012-11-03 23:53:00
6:53 PM,57.9,19.0,22,30.09,10.0,Calm,Calm,-,N/A,,Partly Cloudy,0,2012-11-04 00:53:00
7:53 PM,52.0,19.0,27,30.11,10.0,Calm,Calm,-,N/A,,Clear,0,2012-11-04 01:53:00
8:53 PM,46.9,18.0,32,30.12,10.0,Calm,Calm,-,N/A,,Clear,0,2012-11-04 02:53:00
10:53 PM,37.9,18.0,45,30.14,10.0,NNE,3.5,-,N/A,,Clear,30,2012-11-04 04:53:00
11:53 PM,37.9,19.0,47,30.13,10.0,North,4.6,-,N/A,,Clear,350,2012-11-04 05:53:00